2023/01/28 00:00:00,120.1,-1.3
2023/01/28 00:10:00,120.8,-1.4
2023/01/28 00:20:00,121.1,-1.8
2023/01/28 00:30:00,121.2,-1.6
2023/01/28 00:40:00,121.5,-1.6
2023/01/28 00:50:00,122.1,-1.5
2023/01/28 01:00:00,123.5,-1.7
2023/01/28 01:10:00,124.4,-1.7
2023/01/28 01:20:00,124.8,-1.7
2023/01/28 01:30:00,125.5,-1.6
2023/01/28 01:40:00,126.0,-1.7
2023/01/28 01:50:00,126.5,-1.7
2023/01/28 02:00:00,127.1,-1.5
2023/01/28 02:10:00,128.1,-1.7
2023/01/28 02:20:00,128.7,-1.9
2023/01/28 02:30:00,129.0,-1.8
2023/01/28 02:40:00,129.1,-1.9
2023/01/28 02:50:00,129.0,-1.8
2023/01/28 03:00:00,129.2,-1.9
2023/01/28 03:10:00,130.3,-2.1
2023/01/28 03:20:00,131.1,-2.1
2023/01/28 03:30:00,131.5,-2.2
2023/01/28 03:40:00,132.1,-2.1
2023/01/28 03:50:00,132.8,-1.8
2023/01/28 04:00:00,134.0,-2.1
2023/01/28 04:10:00,135.3,-2.0
2023/01/28 04:20:00,136.2,-1.9
2023/01/28 04:30:00,136.7,-2.3
2023/01/28 04:40:00,137.2,-2.1
2023/01/28 04:50:00,137.1,-2.5
2023/01/28 05:00:00,136.8,-2.4
2023/01/28 05:10:00,137.4,-2.2
2023/01/28 05:20:00,138.3,-2.3
2023/01/28 05:30:00,138.9,-2.4
2023/01/28 05:40:00,139.4,-2.6
2023/01/28 05:50:00,139.4,-2.3
2023/01/28 06:00:00,139.2,-2.2
2023/01/28 06:10:00,139.5,-2.5
2023/01/28 06:20:00,139.7,-2.2
2023/01/28 06:30:00,140.3,-2.3
2023/01/28 06:40:00,140.8,-2.5
2023/01/28 06:50:00,141.6,-2.4
2023/01/28 07:00:00,142.1,-2.4
2023/01/28 07:10:00,142.7,-2.2
2023/01/28 07:20:00,143.2,-2.2
2023/01/28 07:30:00,143.9,-2.0
2023/01/28 07:40:00,145.1,-2.1
2023/01/28 07:50:00,146.5,-2.0
2023/01/28 08:00:00,147.7,-2.5
2023/01/28 08:10:00,148.4,-2.1
2023/01/28 08:20:00,148.9,-2.0
2023/01/28 08:30:00,148.7,-1.7
2023/01/28 08:40:00,148.8,-1.4
2023/01/28 08:50:00,149.7,-1.3
2023/01/28 09:00:00,150.8,-1.5
2023/01/28 09:10:00,150.9,-1.2
2023/01/28 09:20:00,150.6,-1.1
2023/01/28 09:30:00,150.7,-1.1
2023/01/28 09:40:00,150.8,-0.9
2023/01/28 09:50:00,150.8,-0.2
2023/01/28 10:00:00,151.6,-0.7
2023/01/28 10:10:00,152.2,-0.7
2023/01/28 10:20:00,152.8,-0.2
2023/01/28 10:30:00,152.8, 0.1
2023/01/28 10:40:00,152.4, 0.0
2023/01/28 10:50:00,152.2, 0.6
2023/01/28 11:00:00,152.9, 0.3
2023/01/28 11:10:00,153.2, 0.4
2023/01/28 11:20:00,153.3, 0.3
2023/01/28 11:30:00,153.3, 0.6
2023/01/28 11:40:00,153.3, 0.5
2023/01/28 11:50:00,153.1, 0.3
2023/01/28 12:00:00,152.7, 0.6
2023/01/28 12:10:00,152.8, 0.4
2023/01/28 12:20:00,152.5, 0.5
2023/01/28 12:30:00,152.3, 0.6
2023/01/28 12:40:00,152.2, 0.8
2023/01/28 12:50:00,152.1, 0.9
2023/01/28 13:00:00,152.1, 0.6
2023/01/28 13:10:00,152.3, 0.5
2023/01/28 13:20:00,152.9, 0.3
2023/01/28 13:30:00,153.3, 0.5
2023/01/28 13:40:00,153.8, 0.7
2023/01/28 13:50:00,154.1, 0.3
2023/01/28 14:00:00,154.1, 0.8
2023/01/28 14:10:00,154.8, 0.1
2023/01/28 14:20:00,154.9,-0.2
2023/01/28 14:30:00,155.2,-0.7
2023/01/28 14:40:00,155.5,-0.3
2023/01/28 14:50:00,156.2,-0.4
2023/01/28 15:00:00,156.8,-0.6
2023/01/28 15:10:00,156.7,-0.7
2023/01/28 15:20:00,156.5,-0.8
2023/01/28 15:30:00,156.5,-1.1
2023/01/28 15:40:00,156.2,-1.0
2023/01/28 15:50:00,155.9,-1.2
2023/01/28 16:00:00,155.7,-0.8
2023/01/28 16:10:00,155.5,-0.4
2023/01/28 16:20:00,155.2,-0.8
2023/01/28 16:30:00,155.0,-0.5
2023/01/28 16:40:00,154.8,-0.9
2023/01/28 16:50:00,154.7,-1.4
2023/01/28 17:00:00,154.4,-1.2
2023/01/28 17:10:00,154.2,-1.4
2023/01/28 17:20:00,154.0,-1.6
2023/01/28 17:30:00,153.8,-1.6
2023/01/28 17:40:00,153.6,-1.9
2023/01/28 17:50:00,153.4,-1.8
2023/01/28 18:00:00,153.2,-2.2
2023/01/28 18:10:00,153.1,-2.5
2023/01/28 18:20:00,152.9,-2.5
2023/01/28 18:30:00,152.7,-2.7
2023/01/28 18:40:00,152.6,-2.8
2023/01/28 18:50:00,152.5,-3.2
2023/01/28 19:00:00,153.0,-3.2
2023/01/28 19:10:00,153.0,-3.2
2023/01/28 19:20:00,153.2,-3.0
2023/01/28 19:30:00,153.4,-3.6
2023/01/28 19:40:00,153.2,-3.5
2023/01/28 19:50:00,152.9,-3.6
2023/01/28 20:00:00,153.0,-3.5
2023/01/28 20:10:00,153.0,-3.5
2023/01/28 20:20:00,152.9,-3.6
2023/01/28 20:30:00,153.0,-3.8
2023/01/28 20:40:00,153.0,-3.6
2023/01/28 20:50:00,153.7,-3.4
2023/01/28 21:00:00,154.0,-3.7
2023/01/28 21:10:00,154.4,-3.6
2023/01/28 21:20:00,154.7,-3.6
2023/01/28 21:30:00,154.7,-3.4
2023/01/28 21:40:00,155.1,-3.5
2023/01/28 21:50:00,155.1,-3.4
2023/01/28 22:00:00,154.9,-3.3
2023/01/28 22:10:00,155.1,-3.5
2023/01/28 22:20:00,155.0,-3.4
2023/01/28 22:30:00,154.9,-3.4
2023/01/28 22:40:00,154.8,-2.6
2023/01/28 22:50:00,154.6,-3.6
2023/01/28 23:00:00,154.8,-3.6
2023/01/28 23:10:00,155.8,-3.6
2023/01/28 23:20:00,156.3,-3.3
2023/01/28 23:30:00,156.3,-3.4
2023/01/28 23:40:00,156.3,-3.5
2023/01/28 23:50:00,156.6,-3.4
